Radiation Dose at Monitoring Post of Fukushima Daini Nuclear Power Station
Date,Time,MP-1(microSv/h),MP-2(microSv/h),MP-3(microSv/h),MP-4(microSv/h),MP-5(microSv/h),MP-6(microSv/h),MP-7(microSv/h),Wind Direction,Wind Velocity(m/s),Rain
2016/07/24,00:00,-,-,-,-,-,-,-,-,-,-
2016/07/24,00:10,0.426,0.252,0.437,0.401,0.374,0.204,0.177,north-northwest,6.4,Yes
2016/07/24,00:20,0.425,0.250,0.439,0.401,0.378,0.205,0.176,north-northwest,6.4,Yes
2016/07/24,00:30,0.426,0.253,0.435,0.398,0.374,0.205,0.178,north-northwest,6.9,No
2016/07/24,00:40,0.427,0.251,0.439,0.403,0.376,0.204,0.176,north-northwest,6.6,Yes
2016/07/24,00:50,0.425,0.252,0.436,0.400,0.375,0.203,0.177,north-northwest,6.9,No
2016/07/24,01:00,0.426,0.251,0.439,0.402,0.375,0.206,0.176,north-northwest,6.8,Yes
2016/07/24,01:10,0.422,0.253,0.438,0.400,0.376,0.204,0.177,north-northwest,7.5,Yes
2016/07/24,01:20,0.427,0.251,0.437,0.402,0.375,0.204,0.175,north,7.5,No
2016/07/24,01:30,0.424,0.251,0.439,0.401,0.376,0.205,0.176,north,7.2,No
2016/07/24,01:40,0.427,0.252,0.434,0.399,0.373,0.204,0.176,north,7.2,No
2016/07/24,01:50,0.424,0.251,0.440,0.400,0.376,0.204,0.176,north-northwest,7.2,Yes
2016/07/24,02:00,0.425,0.252,0.434,0.397,0.374,0.204,0.177,north,7.2,No
2016/07/24,02:10,0.425,0.249,0.439,0.402,0.376,0.205,0.175,north,6.7,No
2016/07/24,02:20,0.425,0.252,0.438,0.398,0.373,0.204,0.176,north,6.8,No
2016/07/24,02:30,0.426,0.251,0.438,0.401,0.377,0.203,0.176,north,6.3,No
2016/07/24,02:40,0.423,0.251,0.438,0.399,0.376,0.205,0.177,north,6.1,Yes
2016/07/24,02:50,0.426,0.251,0.435,0.400,0.374,0.205,0.176,north,6.2,No
2016/07/24,03:00,0.423,0.250,0.437,0.401,0.375,0.204,0.177,north,6.3,Yes
2016/07/24,03:10,0.426,0.252,0.436,0.398,0.373,0.204,0.176,north,6.4,No
2016/07/24,03:20,0.423,0.251,0.437,0.400,0.376,0.204,0.175,north,6.3,No
2016/07/24,03:30,0.426,0.252,0.437,0.397,0.374,0.204,0.175,north,6.4,No
2016/07/24,03:40,0.425,0.250,0.436,0.400,0.375,0.204,0.175,north,7.2,No
2016/07/24,03:50,0.423,0.251,0.438,0.400,0.372,0.206,0.176,north-northwest,6.7,No
2016/07/24,04:00,0.425,0.251,0.436,0.397,0.377,0.204,0.176,north-northwest,6.6,Yes
2016/07/24,04:10,0.422,0.250,0.439,0.400,0.372,0.205,0.176,north-northwest,7.2,No
2016/07/24,04:20,0.427,0.251,0.435,0.398,0.376,0.204,0.176,north-northwest,6.9,No
2016/07/24,04:30,0.423,0.250,0.439,0.401,0.375,0.204,0.175,north-northwest,7.3,No
2016/07/24,04:40,0.426,0.252,0.437,0.398,0.375,0.206,0.176,north-northwest,6.6,No
2016/07/24,04:50,0.425,0.250,0.438,0.400,0.374,0.203,0.176,north-northwest,6.2,No
2016/07/24,05:00,0.424,0.253,0.438,0.401,0.372,0.205,0.176,north-northwest,6.8,No
2016/07/24,05:10,0.426,0.250,0.436,0.399,0.376,0.203,0.175,north-northwest,7.0,No
2016/07/24,05:20,0.422,0.251,0.439,0.401,0.374,0.204,0.177,north-northwest,6.6,No
2016/07/24,05:30,0.427,0.252,0.435,0.399,0.377,0.203,0.176,north-northwest,5.9,No
2016/07/24,05:40,0.423,0.249,0.441,0.401,0.374,0.202,0.175,north-northwest,6.2,No
2016/07/24,05:50,0.424,0.251,0.437,0.399,0.374,0.205,0.177,north,5.8,No
2016/07/24,06:00,0.427,0.249,0.436,0.399,0.375,0.203,0.175,north-northwest,6.4,No
2016/07/24,06:10,0.423,0.252,0.439,0.402,0.372,0.205,0.176,north,6.5,No
2016/07/24,06:20,0.426,0.251,0.434,0.398,0.376,0.205,0.176,north,6.4,No
2016/07/24,06:30,0.423,0.250,0.439,0.401,0.373,0.204,0.174,north,6.7,No
2016/07/24,06:40,0.424,0.253,0.438,0.397,0.375,0.205,0.176,north-northwest,6.9,No
2016/07/24,06:50,0.425,0.251,0.436,0.397,0.375,0.205,0.175,north,6.3,No
2016/07/24,07:00,0.423,0.249,0.439,0.402,0.373,0.203,0.175,north,5.4,No
2016/07/24,07:10,0.426,0.252,0.438,0.397,0.376,0.204,0.176,north-northwest,5.6,No
2016/07/24,07:20,0.425,0.250,0.435,0.398,0.376,0.205,0.176,north,7.1,No
2016/07/24,07:30,0.425,0.249,0.439,0.402,0.373,0.203,0.174,north,7.0,No
2016/07/24,07:40,0.425,0.251,0.436,0.398,0.376,0.206,0.175,north,6.9,No
2016/07/24,07:50,0.422,0.251,0.436,0.398,0.373,0.204,0.176,north-northwest,7.1,No
2016/07/24,08:00,0.424,0.250,0.440,0.401,0.371,0.203,0.176,north,5.8,No
2016/07/24,08:10,0.427,0.250,0.437,0.400,0.376,0.203,0.176,north,6.7,No
2016/07/24,08:20,0.423,0.253,0.434,0.397,0.377,0.205,0.174,north,6.9,No
2016/07/24,08:30,0.424,0.251,0.439,0.397,0.373,0.203,0.175,north,6.2,No
2016/07/24,08:40,0.427,0.250,0.438,0.403,0.372,0.203,0.175,north,5.4,No
2016/07/24,08:50,0.424,0.249,0.435,0.400,0.376,0.204,0.174,north,6.4,No
2016/07/24,09:00,0.421,0.252,0.435,0.398,0.377,0.205,0.175,north,6.4,No
2016/07/24,09:10,0.425,0.252,0.439,0.397,0.376,0.205,0.176,north,7.8,No
2016/07/24,09:20,0.427,0.250,0.439,0.397,0.372,0.204,0.174,north,7.8,No
2016/07/24,09:30,0.423,0.250,0.435,0.402,0.372,0.204,0.174,north,7.6,No
2016/07/24,09:40,0.424,0.251,0.435,0.400,0.378,0.204,0.174,north-northeast,5.9,No
2016/07/24,09:50,0.425,0.251,0.441,0.396,0.376,0.205,0.175,north,5.8,Yes
2016/07/24,10:00,0.423,0.250,0.438,0.396,0.373,0.205,0.176,north,6.0,No
2016/07/24,10:10,0.424,0.251,0.435,0.401,0.373,0.206,0.177,north,5.3,No
2016/07/24,10:20,0.426,0.252,0.440,0.401,0.378,0.204,0.175,north,5.7,No
2016/07/24,10:30,0.424,0.251,0.438,0.399,0.374,0.205,0.176,north,6.2,No
2016/07/24,10:40,0.424,0.251,0.435,0.400,0.372,0.205,0.177,north,4.0,No
2016/07/24,10:50,0.429,0.252,0.439,0.401,0.378,0.204,0.178,north,4.8,No
2016/07/24,11:00,0.425,0.251,0.441,0.398,0.378,0.203,0.177,north-northeast,6.1,No
2016/07/24,11:10,0.422,0.249,0.437,0.397,0.374,0.204,0.175,north-northeast,7.0,No
2016/07/24,11:20,0.427,0.252,0.433,0.401,0.371,0.205,0.174,north-northeast,6.8,No
2016/07/24,11:30,0.426,0.251,0.438,0.404,0.373,0.205,0.175,north,7.7,No
2016/07/24,11:40,0.421,0.250,0.440,0.400,0.376,0.203,0.175,north-northeast,8.6,No
2016/07/24,11:50,0.422,0.249,0.438,0.399,0.376,0.203,0.177,north-northeast,7.2,No
2016/07/24,12:00,0.428,0.251,0.434,0.395,0.374,0.203,0.176,north-northeast,7.8,No
2016/07/24,12:10,0.425,0.252,0.434,0.396,0.370,0.203,0.176,north,8.6,No
2016/07/24,12:20,0.421,0.252,0.442,0.404,0.371,0.205,0.175,north-northeast,8.8,No
2016/07/24,12:30,0.426,0.251,0.439,0.403,0.377,0.205,0.175,north-northeast,8.6,No
2016/07/24,12:40,0.427,0.248,0.434,0.399,0.378,0.205,0.175,north-northeast,7.7,No
2016/07/24,12:50,0.424,0.251,0.435,0.399,0.377,0.204,0.175,north-northeast,9.0,No
2016/07/24,13:00,0.421,0.252,0.433,0.397,0.372,0.204,0.176,north-northeast,8.4,No
2016/07/24,13:10,0.425,0.251,0.433,0.396,0.372,0.204,0.174,north-northeast,8.8,No
2016/07/24,13:20,0.428,0.250,0.438,0.398,0.371,0.205,0.176,north-northeast,8.5,No
2016/07/24,13:30,0.425,0.251,0.441,0.404,0.373,0.204,0.177,north-northeast,8.9,No
2016/07/24,13:40,0.421,0.253,0.438,0.402,0.379,0.205,0.178,north-northeast,8.6,No
2016/07/24,13:50,0.426,0.251,0.436,0.400,0.376,0.206,0.176,north-northeast,8.6,No
2016/07/24,14:00,0.427,0.250,0.436,0.397,0.372,0.205,0.176,north-northeast,8.6,No
2016/07/24,14:10,0.424,0.252,0.442,0.405,0.372,0.204,0.175,north-northeast,7.7,No
2016/07/24,14:20,0.424,0.252,0.439,0.404,0.378,0.204,0.176,north-northeast,8.4,No
2016/07/24,14:30,0.428,0.252,0.436,0.399,0.376,0.204,0.178,north-northeast,7.6,No
2016/07/24,14:40,0.425,0.251,0.436,0.398,0.373,0.205,0.176,north,7.5,No
2016/07/24,14:50,0.424,0.252,0.441,0.403,0.374,0.206,0.175,north-northeast,7.2,No
2016/07/24,15:00,0.428,0.252,0.439,0.402,0.377,0.204,0.177,north,8.3,No
2016/07/24,15:10,0.427,0.250,0.434,0.400,0.377,0.204,0.176,north,8.7,No
2016/07/24,15:20,0.422,0.250,0.432,0.398,0.374,0.204,0.177,north,8.2,No
2016/07/24,15:30,0.427,0.252,0.437,0.402,0.370,0.205,0.176,north-northeast,8.8,No
2016/07/24,15:40,0.428,0.251,0.443,0.403,0.373,0.206,0.176,north-northeast,7.8,No
2016/07/24,15:50,0.423,0.251,0.438,0.399,0.379,0.204,0.178,north-northeast,8.9,No
2016/07/24,16:00,0.426,0.252,0.438,0.398,0.376,0.204,0.176,north-northeast,8.4,No
2016/07/24,16:10,0.428,0.252,0.436,0.401,0.374,0.205,0.175,north-northeast,9.0,No
2016/07/24,16:20,0.424,0.251,0.442,0.403,0.373,0.205,0.177,north-northeast,8.5,No
2016/07/24,16:30,0.426,0.253,0.441,0.400,0.378,0.205,0.176,north-northeast,8.7,No
2016/07/24,16:40,0.428,0.252,0.437,0.404,0.377,0.205,0.176,north-northeast,6.7,No
2016/07/24,16:50,0.425,0.251,0.439,0.403,0.375,0.203,0.177,north,7.2,No
2016/07/24,17:00,0.426,0.253,0.442,0.400,0.370,0.205,0.177,north,6.5,No
2016/07/24,17:10,0.428,0.253,0.437,0.401,0.376,0.206,0.176,north-northeast,5.8,No
2016/07/24,17:20,0.424,0.250,0.439,0.405,0.377,0.205,0.176,north-northeast,6.3,No
2016/07/24,17:30,0.428,0.252,0.440,0.400,0.374,0.204,0.176,north,6.4,No
2016/07/24,17:40,0.427,0.252,0.437,0.400,0.373,0.206,0.176,north,5.0,No
2016/07/24,17:50,0.423,0.250,0.439,0.404,0.377,0.205,0.177,north,6.4,No
2016/07/24,18:00,0.428,0.254,0.442,0.400,0.373,0.205,0.175,north,6.0,No
2016/07/24,18:10,0.426,0.251,0.437,0.403,0.374,0.206,0.177,north,3.9,No
2016/07/24,18:20,0.424,0.253,0.440,0.404,0.377,0.205,0.176,north,4.3,No
2016/07/24,18:30,0.428,0.253,0.439,0.399,0.373,0.203,0.176,north,4.9,No
2016/07/24,18:40,0.426,0.250,0.436,0.402,0.377,0.205,0.177,north,4.8,No
2016/07/24,18:50,0.425,0.253,0.441,0.402,0.375,0.204,0.176,north,5.5,No
2016/07/24,19:00,0.427,0.251,0.439,0.401,0.376,0.204,0.176,north,7.1,No
2016/07/24,19:10,0.424,0.252,0.438,0.404,0.378,0.205,0.177,north,6.6,No
2016/07/24,19:20,0.426,0.252,0.441,0.400,0.374,0.205,0.176,north,6.8,No
2016/07/24,19:30,0.429,0.250,0.437,0.402,0.378,0.205,0.177,north,6.2,No
2016/07/24,19:40,0.424,0.253,0.441,0.402,0.373,0.204,0.177,north,7.0,No
2016/07/24,19:50,0.430,0.251,0.438,0.397,0.374,0.205,0.176,north,6.7,No
2016/07/24,20:00,0.425,0.251,0.436,0.402,0.377,0.205,0.176,north,6.5,No
2016/07/24,20:10,0.423,0.254,0.441,0.402,0.373,0.205,0.176,north-northwest,6.4,No
2016/07/24,20:20,0.426,0.251,0.437,0.400,0.376,0.206,0.177,north-northwest,6.0,No
2016/07/24,20:30,0.424,0.252,0.438,0.402,0.375,0.205,0.177,north-northwest,5.7,No
2016/07/24,20:40,0.426,0.253,0.442,0.400,0.374,0.203,0.177,north,5.7,No
2016/07/24,20:50,0.425,0.251,0.438,0.402,0.377,0.205,0.177,north-northwest,5.5,No
2016/07/24,21:00,0.424,0.253,0.441,0.400,0.373,0.204,0.176,north-northwest,4.7,No
2016/07/24,21:10,0.427,0.251,0.441,0.399,0.376,0.205,0.176,north-northwest,4.4,No
2016/07/24,21:20,0.425,0.253,0.437,0.402,0.374,0.206,0.178,north,4.7,No
2016/07/24,21:30,0.426,0.252,0.442,0.400,0.375,0.204,0.176,north,4.0,No
2016/07/24,21:40,0.428,0.251,0.440,0.404,0.377,0.206,0.177,north-northwest,4.5,No
2016/07/24,21:50,0.425,0.253,0.439,0.401,0.373,0.205,0.176,north-northwest,4.1,No
2016/07/24,22:00,0.428,0.252,0.441,0.398,0.377,0.206,0.177,north-northwest,4.1,No
2016/07/24,22:10,0.426,0.251,0.436,0.404,0.375,0.204,0.177,north,3.4,No
2016/07/24,22:20,0.424,0.253,0.441,0.401,0.375,0.203,0.176,north,3.0,No
2016/07/24,22:30,0.426,0.251,0.439,0.400,0.378,0.205,0.176,north,3.1,No
2016/07/24,22:40,0.424,0.253,0.439,0.402,0.375,0.205,0.177,north,4.4,No
2016/07/24,22:50,0.428,0.252,0.443,0.399,0.377,0.205,0.177,north-northwest,3.9,No
2016/07/24,23:00,0.427,0.252,0.440,0.403,0.377,0.205,0.178,north-northwest,2.3,No
2016/07/24,23:10,0.425,0.253,0.441,0.401,0.374,0.204,0.177,north,1.9,No
2016/07/24,23:20,0.428,0.251,0.441,0.402,0.378,0.206,0.178,north,3.5,No
2016/07/24,23:30,0.425,0.252,0.438,0.403,0.375,0.204,0.177,north,1.9,No
2016/07/24,23:40,0.427,0.253,0.442,0.399,0.376,0.205,0.177,north,1.9,No
2016/07/24,23:50,0.429,0.252,0.440,0.403,0.378,0.206,0.178,north,2.8,No
